Regional Weather Roundup
Issued by NWS

Home | Current Version | Previous Version | Graphics & Text | Print | Product List | Glossary On
Versions: 1 2 3 4 5 6 7 8 9 10 11 12 13 14 15 16 17 18 19 20 21 22 23 24 25 26 27 28 29 30 31 32 33 34 35 36 37 38 39 40 41 42 43 44 45 46 47 48 49 50
000
ASUS43 KMKX 161400
RWRWI

WISCONSIN REGIONAL WEATHER ROUNDUP
NATIONAL WEATHER SERVICE MILWAUKEE/SULLIVAN WI
900 AM CDT WED APR 16 2014

NOTE: "FAIR" INDICATES FEW OR NO CLOUDS BELOW 12,000 FEET WITH NO
SIGNIFICANT WEATHER AND/OR OBSTRUCTIONS TO VISIBILITY.

WIZ001-002-006>008-014>016-023>028-161500-
NORTHWEST WISCONSIN

CITY           SKY/WX    TMP DP  RH WIND       PRES   REMARKS
SUPERIOR ARPT  CLOUDY    28  15  58 E7        30.18R WCI  21
ASHLAND        CLOUDY    26  11  52 E5        30.21R WCI  20
HAYWARD        SNOW      26  22  84 E7        30.13F VSB 1/2 WCI  18
SIREN          LGT SNOW  28  25  91 E9        30.08F WCI  19
RICE LAKE      LGT SNOW  28  25  89 E17       30.11F VSB 3/4 WCI  16
LADYSMITH      SNOW      28  26  93 E9        30.16R VSB 1/2 WCI  19
EAU CLAIRE     NOT AVBL
MENOMONIE      CLOUDY    31  24  72 E20G25    30.06F WCI  19
NEW RICHMOND   CLOUDY    30  24  80 E17G24    30.02S WCI  18
OSCEOLA        LGT SNOW  29  27  90 E17G25    30.04F WCI  17
$$

WIZ003>005-009-010-017-018-161500-
NORTH CENTRAL WISCONSIN

CITY           SKY/WX    TMP DP  RH WIND       PRES   REMARKS
WOODRUFF       CLOUDY    26  15  63 S9        30.18R WCI  16
RHINELANDER    LGT SNOW  24  18  77 SE9       30.19S WCI  14
EAGLE RIVER    CLOUDY    23  13  66 S5        30.20R WCI  17
LAND O LAKES   CLOUDY    23  15  71 S5        30.20S WCI  17
PHILLIPS       LGT SNOW  24  21  89 SE8       30.16R WCI  15
TOMAHAWK       LGT SNOW  24  20  84 SE6       30.18S VSB 3/4 WCI  17
MEDFORD        LGT SNOW  26  23  89 SE9G17    30.14F WCI  16
MERRILL        LGT SNOW  25  23  91 CALM      30.19F VSB 3/4
$$

WIZ029-030-035-036-043>047-161500-
CENTRAL WISCONSIN

CITY           SKY/WX    TMP DP  RH WIND       PRES   REMARKS
WAUSAU         MIX PCPN  27  22  81 SE13      30.18F WCI  16
MOSINEE        CLOUDY    27  25  93 E7        30.20  WCI  19
MARSHFIELD     FLURRIES  30  20  66 SE14G23   30.15F WCI  19
STEVENS POINT  CLOUDY    27  21  79 E12       30.20F WCI  17
WAUPACA        CLOUDY    34  27  75 E9        30.24F WCI  26
WAUTOMA        NOT AVBL
WISC RAPIDS    CLOUDY    31  21  66 SE10      30.19F WCI  22
CAMP DOUGLAS   SNOWSHWR  32  23  69 SE13G18   30.15S WCI  22
$$

WIZ011>013-019>022-031-037>040-048>050-161500-
NORTHEAST WISCONSIN

CITY           SKY/WX    TMP DP  RH WIND       PRES   REMARKS
ANTIGO         LGT SNOW  23  19  82 SE10      30.22R WCI  13
STURGEON BAY   CLOUDY    34  21  60 S16       30.31S WCI  23
GREEN BAY      CLOUDY    32  27  81 S12       30.29S WCI  23
MANITOWOC      NOT AVBL
APPLETON       CLOUDY    32  25  74 SE7       30.27S WCI  26
CLINTONVILLE   LGT SNOW  30  27  86 S8        30.27R WCI  23
OSHKOSH        CLOUDY    33  26  75 SE9       30.25S WCI  25
$$

WIZ032>034-041-042-053>061-161500-
SOUTHWEST WISCONSIN

CITY           SKY/WX    TMP DP  RH WIND       PRES   REMARKS
LA CROSSE      CLOUDY    38  20  48 SE16G25   30.05F WCI  29
SPARTA         CLOUDY    34  20  57 E14G20    30.12F WCI  25
VIROQUA        CLOUDY    33  22  64 SE16G28   30.07S WCI  22
BOSCOBEL       CLOUDY    39  22  50 VRB5      30.12F
PRAIRIE DU CHI CLOUDY    37  22  54 SE13G18   30.09F WCI  29
PLATTEVILLE    FAIR      35  24  64 SE16      30.14F WCI  25
$$

WIZ056-057-062-063-064-067-068-161500-
SOUTH CENTRAL WISCONSIN

CITY           SKY/WX    TMP DP  RH WIND       PRES   REMARKS
BARABOO/DELLS  CLOUDY    33  22  64 SE10      30.17S WCI  25
LONE ROCK      NOT AVBL
WATERTOWN      CLOUDY    33  25  71 SE10      30.24S WCI  25
MADISON        CLOUDY    36  23  59 SE15      30.21F WCI  27
MIDDLETON      CLOUDY    37  22  56 S12       30.20S WCI  29
MONROE         CLOUDY    34  25  70 SE15      30.18F WCI  24
JANESVILLE     CLOUDY    37  25  60 S13G18    30.22F WCI  29
$$

WIZ051-052-058>065-066-070>072-161500-
SOUTHEAST WISCONSIN

CITY           SKY/WX    TMP DP  RH WIND       PRES   REMARKS
MILWAUKEE      PTSUNNY   37  22  54 S13       30.29S WCI  29
WAUKESHA       NOT AVBL
MILWAUKEE/TIMM CLOUDY    36  21  55 S9        30.30R WCI  29
RACINE         SUNNY     38  26  62 S14G20    30.31S WCI  30
BURLINGTON     SUNNY     34  24  68 S12       30.27S WCI  25
KENOSHA        SUNNY     37  24  59 S10       30.28F WCI  30
FOND DU LAC    CLOUDY    34  25  69 SE12      30.26S WCI  25
SHEBOYGAN      CLOUDY    34  29  82 S7        30.30R WCI  28
WEST BEND      PTSUNNY   34  27  75 SE9       30.28R WCI  26
JUNEAU         PTSUNNY   32  22  67 SE10      30.26S WCI  24
$$

LSZ147-162-161500-
LAKE SUPERIOR

STATION/POSITION TIME  TEMP    WIND        PRES    WAVE
                       AIR SEA DIR/SP/G            HT/PER
                 (UTC) (F)     (DEG/KT/KT) (MB)    (FT/S)
DEVILS ISLAND    1300   25     110/  6/  8 1024.4R
PORT WING        1340   30     130/  3/  7 1022.4R
SAXON HARBOR     1300          170/  2/  8 1022.4R
$$

LMZ867-665-643>646-161500-
LAKE MICHIGAN

STATION/POSITION TIME  TEMP    WIND        PRES    WAVE
                       AIR SEA DIR/SP/G            HT/PER
                 (UTC) (F)     (DEG/KT/KT) (MB)    (FT/S)
NORTHPORT PIER   1300   31     140/  4/  6 1026.4R
SISTER BAY       1309   38        CALM       N/A
KEWAUNEE LAKESHO 1300   33     170/ 16/ 18 1027.0R
SHEBOYGAN LAKESH 1300   34     150/ 17/ 19 1026.8R
PORT WASHINGTON  1300   35     160/ 12/ 15 1026.1R
MILWAUKEE LAKESH 1300   35     180/ 12/ 14   N/A
KENOSHA   LAKESH 1300   36     190/ 11/ 19   N/A
$$

TC  - TEMPERATURE IN CELSIUS
VSB - VISIBILITY IN STATUTE MILES
WCI - WIND CHILL INDEX
HX  - HEAT INDEX




USA.gov is the U.S. government's official web portal to all federal, state and local government web resources and services.